• In Romania
  • List of Countries
  • For 7 days
  • Water Temperature
  • Satellite Maps
  • Weather Map
  • Weather Widgets
  • user-avatar
    Login

    Hourly Weather Karwin

    Today, 22 October, Monday

    Time Temperature Precipitation Wind Pressure Humidity
    00:00 +5°C° 0 mm 0 mps 750 mmHg 86%
    01:00 +5°C° 0 mm 0 mps 750 mmHg 88%
    02:00 +5°C° 0 mm 0 mps 750 mmHg 89%
    03:00 +4°C° 0 mm 0 mps 750 mmHg 89%
    04:00 +4°C° 0 mm 0 mps 749 mmHg 90%
    05:00 +4°C° 0 mm 0 mps 749 mmHg 89%
    06:00 +4°C° 0 mm 0 mps 749 mmHg 89%
    07:00 +5°C° 0 mm 0 mps 749 mmHg 84%
    08:00 +7°C° 0 mm 0 mps 749 mmHg 77%
    09:00 +9°C° 0 mm 0 mps 749 mmHg 70%
    10:00 +10°C° 0 mm 0 mps 749 mmHg 63%
    11:00 +12°C° 0 mm 1 mps 748 mmHg 59%
    12:00 +13°C° 0 mm 1 mps 748 mmHg 55%
    13:00 +13°C° 0 mm 1 mps 748 mmHg 54%
    14:00 +12°C° 0 mm 1 mps 748 mmHg 56%
    15:00 +12°C° 0 mm 1 mps 747 mmHg 58%
    16:00 +12°C° 0 mm 2 mps 747 mmHg 61%
    17:00 +10°C° 0 mm 2 mps 747 mmHg 64%
    18:00 +9°C° 0 mm 2 mps 747 mmHg 68%
    19:00 +8°C° 0 mm 2 mps 747 mmHg 71%
    20:00 +8°C° 0.1 mm 3 mps 747 mmHg 72%
    21:00 +8°C° 0.1 mm 3 mps 747 mmHg 72%
    22:00 +9°C° 0.1 mm 3 mps 747 mmHg 72%
    23:00 +8°C° 0.1 mm 3 mps 747 mmHg 75%

    Tomorrow, 23 October, Tuesday

    Time Temperature Precipitation Wind Pressure Humidity
    00:00 +7°C° 0.1 mm 4 mps 747 mmHg 78%
    01:00 +7°C° 0.1 mm 4 mps 747 mmHg 80%
    02:00 +7°C° 0 mm 4 mps 747 mmHg 83%
    03:00 +6°C° 0 mm 4 mps 747 mmHg 86%
    04:00 +5°C° 0 mm 3 mps 746 mmHg 89%
    05:00 +5°C° 0 mm 4 mps 746 mmHg 89%
    06:00 +4°C° 0 mm 4 mps 746 mmHg 89%
    07:00 +4°C° 0 mm 4 mps 745 mmHg 89%
    08:00 +5°C° 0 mm 4 mps 745 mmHg 79%
    09:00 +7°C° 0 mm 5 mps 744 mmHg 69%
    10:00 +8°C° 0 mm 6 mps 743 mmHg 59%
    11:00 +8°C° 0.2 mm 7 mps 742 mmHg 59%
    12:00 +8°C° 0.2 mm 7 mps 741 mmHg 58%
    13:00 +9°C° 0.2 mm 8 mps 740 mmHg 58%
    14:00 +7°C° 0.3 mm 8 mps 739 mmHg 60%
    15:00 +7°C° 0.3 mm 9 mps 738 mmHg 63%
    16:00 +7°C° 0.3 mm 9 mps 737 mmHg 66%
    17:00 +7°C° 0.4 mm 9 mps 737 mmHg 70%
    18:00 +7°C° 0.4 mm 9 mps 736 mmHg 74%
    19:00 +7°C° 0.4 mm 9 mps 735 mmHg 77%
    20:00 +7°C° 0.7 mm 9 mps 734 mmHg 78%
    21:00 +8°C° 0.7 mm 9 mps 734 mmHg 79%
    22:00 +8°C° 0.7 mm 10 mps 733 mmHg 80%
    23:00 +8°C° 1.1 mm 10 mps 732 mmHg 81%

    Day after tomorrow, 24 October, Wednesday

    Time Temperature Precipitation Wind Pressure Humidity
    00:00 +9°C° 1.1 mm 10 mps 731 mmHg 81%
    01:00 +9°C° 1.1 mm 10 mps 730 mmHg 82%
    02:00 +9°C° 1.6 mm 10 mps 729 mmHg 82%
    03:00 +9°C° 1.6 mm 11 mps 728 mmHg 83%
    04:00 +8°C° 1.6 mm 11 mps 727 mmHg 83%
    05:00 +7°C° 1.1 mm 11 mps 728 mmHg 78%
    06:00 +6°C° 1.1 mm 11 mps 729 mmHg 73%
    07:00 +5°C° 1.1 mm 10 mps 729 mmHg 68%
    08:00 +4°C° 0.2 mm 11 mps 730 mmHg 62%
    09:00 +4°C° 0.2 mm 11 mps 731 mmHg 56%
    10:00 +4°C° 0.2 mm 11 mps 732 mmHg 50%
    11:00 +4°C° 0.1 mm 11 mps 732 mmHg 48%
    12:00 +6°C° 0.1 mm 11 mps 733 mmHg 47%
    13:00 +6°C° 0.1 mm 11 mps 733 mmHg 45%
    14:00 +5°C° 0 mm 10 mps 734 mmHg 46%
    15:00 +5°C° 0 mm 10 mps 734 mmHg 47%
    16:00 +5°C° 0 mm 9 mps 735 mmHg 48%
    17:00 +3°C° 0 mm 9 mps 735 mmHg 49%
    18:00 +4°C° 0 mm 8 mps 736 mmHg 50%
    19:00 +2°C° 0 mm 8 mps 737 mmHg 52%
    20:00 +2°C° 0 mm 8 mps 737 mmHg 54%
    21:00 +2°C° 0 mm 8 mps 738 mmHg 56%
    22:00 +2°C° 0 mm 7 mps 738 mmHg 57%
    23:00 +2°C° 0 mm 7 mps 738 mmHg 61%

    25 October, Thursday

    Time Temperature Precipitation Wind Pressure Humidity
    00:00 +2°C° 0 mm 7 mps 739 mmHg 64%
    01:00 +2°C° 0 mm 6 mps 739 mmHg 68%
    02:00 +2°C° 0 mm 6 mps 739 mmHg 69%
    03:00 +1°C° 0 mm 6 mps 739 mmHg 71%
    04:00 +1°C° 0 mm 6 mps 739 mmHg 73%
    05:00 +1°C° 0 mm 6 mps 739 mmHg 73%
    06:00 +2°C° 0 mm 6 mps 739 mmHg 73%
    07:00 +2°C° 0 mm 6 mps 738 mmHg 73%
    08:00 +2°C° 0.4 mm 6 mps 738 mmHg 75%
    09:00 +3°C° 0.4 mm 6 mps 737 mmHg 77%
    10:00 +4°C° 0.4 mm 7 mps 736 mmHg 80%
    11:00 +5°C° 0.4 mm 7 mps 736 mmHg 81%
    12:00 +7°C° 0.4 mm 8 mps 735 mmHg 82%
    13:00 +9°C° 0.4 mm 8 mps 734 mmHg 83%
    14:00 +9°C° 0.4 mm 8 mps 734 mmHg 82%
    15:00 +9°C° 0.4 mm 8 mps 734 mmHg 81%
    16:00 +9°C° 0.4 mm 8 mps 734 mmHg 80%
    17:00 +7°C° 0.3 mm 8 mps 735 mmHg 80%
    18:00 +8°C° 0.3 mm 7 mps 735 mmHg 80%
    19:00 +7°C° 0.3 mm 6 mps 736 mmHg 80%
    20:00 +7°C° 0.1 mm 6 mps 736 mmHg 81%
    21:00 +5°C° 0.1 mm 6 mps 737 mmHg 81%
    22:00 +6°C° 0.1 mm 5 mps 737 mmHg 82%
    23:00 +5°C° 0 mm 5 mps 737 mmHg 83%

    26 October, Friday

    Time Temperature Precipitation Wind Pressure Humidity
    00:00 +5°C° 0 mm 5 mps 738 mmHg 84%
    01:00 +5°C° 0 mm 5 mps 738 mmHg 85%
    02:00 +5°C° 0 mm 4 mps 738 mmHg 86%
    03:00 +4°C° 0 mm 4 mps 738 mmHg 87%
    04:00 +4°C° 0 mm 4 mps 738 mmHg 88%
    05:00 +4°C° 0 mm 4 mps 738 mmHg 88%
    06:00 +4°C° 0 mm 3 mps 739 mmHg 89%
    07:00 +4°C° 0 mm 3 mps 739 mmHg 89%
    08:00 +6°C° 0 mm 4 mps 739 mmHg 83%
    09:00 +7°C° 0 mm 4 mps 739 mmHg 77%
    10:00 +10°C° 0 mm 4 mps 738 mmHg 71%
    11:00 +10°C° 0 mm 4 mps 738 mmHg 70%
    12:00 +11°C° 0 mm 4 mps 738 mmHg 70%
    13:00 +12°C° 0 mm 4 mps 737 mmHg 69%
    14:00 +11°C° 0 mm 3 mps 737 mmHg 72%
    15:00 +11°C° 0 mm 3 mps 737 mmHg 75%
    16:00 +10°C° 0 mm 2 mps 737 mmHg 77%
    17:00 +10°C° 0 mm 2 mps 736 mmHg 79%
    18:00 +9°C° 0 mm 2 mps 736 mmHg 82%
    19:00 +8°C° 0 mm 2 mps 736 mmHg 84%
    20:00 +8°C° 0 mm 2 mps 736 mmHg 84%
    21:00 +8°C° 0 mm 3 mps 735 mmHg 84%
    22:00 +8°C° 0 mm 3 mps 735 mmHg 84%
    23:00 +8°C° 0 mm 3 mps 735 mmHg 85%

    27 October, Saturday

    Time Temperature Precipitation Wind Pressure Humidity
    00:00 +8°C° 0 mm 3 mps 734 mmHg 86%
    01:00 +8°C° 0 mm 3 mps 734 mmHg 88%
    02:00 +8°C° 0 mm 2 mps 733 mmHg 88%
    03:00 +8°C° 0 mm 2 mps 733 mmHg 89%
    04:00 +8°C° 0 mm 2 mps 733 mmHg 89%
    05:00 +8°C° 0 mm 2 mps 732 mmHg 90%
    06:00 +8°C° 0 mm 2 mps 732 mmHg 90%
    07:00 +8°C° 0 mm 2 mps 732 mmHg 91%
    08:00 +10°C° 0 mm 2 mps 732 mmHg 85%
    09:00 +12°C° 0 mm 2 mps 732 mmHg 80%
    10:00 +13°C° 0 mm 2 mps 732 mmHg 74%
    11:00 +13°C° 0.5 mm 2 mps 732 mmHg 76%
    12:00 +13°C° 0.5 mm 2 mps 732 mmHg 78%
    13:00 +12°C° 0.5 mm 2 mps 732 mmHg 80%
    14:00 +10°C° 1.5 mm 2 mps 732 mmHg 83%
    15:00 +9°C° 1.5 mm 2 mps 732 mmHg 87%
    16:00 +8°C° 1.5 mm 3 mps 732 mmHg 90%
    17:00 +8°C° 0.7 mm 2 mps 732 mmHg 90%
    18:00 +8°C° 0.7 mm 2 mps 732 mmHg 90%
    19:00 +9°C° 0.7 mm 1 mps 732 mmHg 90%
    20:00 +7°C° 0.7 mm 2 mps 732 mmHg 88%
    21:00 +7°C° 0.7 mm 2 mps 732 mmHg 87%
    22:00 +7°C° 0.7 mm 2 mps 732 mmHg 86%
    23:00 +7°C° 1.2 mm 3 mps 731 mmHg 85%

    28 October, Sunday

    Time Temperature Precipitation Wind Pressure Humidity
    00:00 +5°C° 1.2 mm 3 mps 731 mmHg 84%
    01:00 +5°C° 1.2 mm 3 mps 730 mmHg 83%
    02:00 +5°C° 1.2 mm 3 mps 730 mmHg 83%
    03:00 +4°C° 1.2 mm 4 mps 730 mmHg 84%
    04:00 +4°C° 1.2 mm 4 mps 729 mmHg 85%
    05:00 +4°C° 0.9 mm 3 mps 729 mmHg 85%
    06:00 +4°C° 0.9 mm 3 mps 729 mmHg 86%
    07:00 +4°C° 0.9 mm 3 mps 729 mmHg 86%
    08:00 +5°C° 0.1 mm 2 mps 730 mmHg 85%
    09:00 +5°C° 0.1 mm 2 mps 730 mmHg 84%
    10:00 +7°C° 0.1 mm 1 mps 731 mmHg 83%
    11:00 +6°C° 0.1 mm 2 mps 732 mmHg 83%
    12:00 +5°C° 0.1 mm 3 mps 733 mmHg 82%
    13:00 +5°C° 0.1 mm 4 mps 733 mmHg 81%
    14:00 +5°C° 0 mm 3 mps 734 mmHg 81%
    15:00 +5°C° 0 mm 3 mps 735 mmHg 80%
    16:00 +5°C° 0 mm 2 mps 736 mmHg 80%
    17:00 +5°C° 0 mm 2 mps 737 mmHg 82%
    18:00 +4°C° 0 mm 2 mps 738 mmHg 85%
    19:00 +3°C° 0 mm 2 mps 738 mmHg 88%
    20:00 +3°C° 0 mm 2 mps 739 mmHg 88%
    21:00 +4°C° 0 mm 1 mps 739 mmHg 89%
    22:00 +4°C° 0 mm 1 mps 740 mmHg 89%
    23:00 +3°C° 0 mm 1 mps 740 mmHg 89%
    Show more